Weather History for Westhampton Beach, NY

Change the Weather History Date:

Wednesday, December 7, 2011

  Actual Average Record
Temperature  
Mean Temperature 58 °F -  
Max Temperature 60 °F 45 °F 70 °F (1998)
Min Temperature 55 °F 27 °F 1 °F (2002)
Degree Days  
Heating Degree Days 8    
Growing Degree Days 8 (Base 50)    
Moisture  
Dew Point 55 °F    
Average Humidity 95    
Maximum Humidity 100    
Minimum Humidity 88    
Precipitation  
Precipitation 1.03 in - - ()
Sea Level Pressure  
Sea Level Pressure 29.65 in    
Wind  
Wind Speed 5 mph (South)    
Max Wind Speed 13 mph    
Max Gust Speed 21 mph    
Visibility 3 miles    
Events Rain    
Averages and records for this station are not official NWS values.
T = Trace of Precipitation, MM = Missing Value Source: NWS Daily Summary

Daily Weather History Graph

Daily Weather History Graph

Search for Another Location

Airport:

Trip Planner

Search our weather history database for the weather conditions in past years. The results will help you decide how hot, cold, wet, or windy it might be!

Date:

Astronomy

Dec. 07, 2011 Rise Set
Actual Time 7:01 AM EST 4:22 PM EST
Civil Twilight 6:30 AM EST 4:53 PM EST
Nautical Twilight 5:56 AM EST 5:27 PM EST
Astronomical Twilight 5:22 AM EST 6:00 PM EST
Moon 2:22 PM EST (12/7) 4:13 AM EST (12/7)
Length of Visible Light 10h 22m
Length of Day
9h 21m
Waxing Gibbous, 92% of the Moon is Illuminated
Dec 7
Waxing Gibbous
Dec 10
Full
Dec 17
Last Quarter
Dec 24
New
Jan 1
First Quarter

Hourly Weather History & Observations

Time (EST) Temp. Dew Point Humidity Pressure Visibility Wind Dir Wind Speed Gust Speed Precip Events Conditions
12:53 AM 55.9 °F 54.0 °F 93% 29.93 in 2.5 mi SW 9.2 mph - 0.01 in   Overcast
1:53 AM 55.9 °F 55.0 °F 97% 29.91 in 2.5 mi SW 8.1 mph - N/A   Overcast
2:53 AM 57.0 °F 55.0 °F 93% 29.91 in 2.5 mi SW 9.2 mph - N/A   Overcast
3:53 AM 57.0 °F 55.0 °F 93% 29.88 in 2.5 mi SW 3.5 mph - N/A   Overcast
4:53 AM 55.9 °F 55.0 °F 97% 29.88 in 2.5 mi SW 4.6 mph - 0.01 in   Overcast
5:53 AM 57.0 °F 55.0 °F 93% 29.88 in 2.5 mi SW 6.9 mph - 0.00 in   Overcast
6:53 AM 55.9 °F 55.0 °F 97% 29.86 in 2.5 mi SW 6.9 mph - 0.03 in Rain Light Rain
7:53 AM 57.0 °F 55.0 °F 93% 29.85 in 2.5 mi SW 5.8 mph - 0.02 in Rain Light Rain
9:53 AM 57.0 °F 55.9 °F 96% 29.84 in 2.5 mi SW 3.5 mph - 0.02 in Rain Light Rain
10:53 AM 57.9 °F 57.0 °F 97% 29.81 in 2.5 mi SSE 8.1 mph - 0.05 in Rain Rain
11:53 AM 57.0 °F 55.0 °F 93% 29.78 in 2.0 mi SW 6.9 mph - 0.10 in Rain Heavy Rain
12:00 PM 57.2 °F 55.4 °F 94% 29.76 in 1.8 mi SSW 4.6 mph - 0.02 in Rain Rain
12:38 PM 57.2 °F 55.4 °F 94% 29.73 in 2.5 mi SW 3.5 mph - 0.11 in Rain Light Rain
12:51 PM 57.2 °F 55.4 °F 94% 29.72 in 1.0 mi SSW 3.5 mph - 0.18 in Rain Heavy Rain
12:53 PM 57.0 °F 55.0 °F 93% 29.73 in 1.0 mi Variable 3.5 mph - 0.21 in Rain Heavy Rain
1:12 PM 57.2 °F 55.4 °F 94% 29.72 in 3.0 mi SW 3.5 mph - 0.06 in Rain Light Rain
1:21 PM 57.2 °F 55.4 °F 94% 29.72 in 1.8 mi Calm Calm - 0.09 in Rain Heavy Rain
1:33 PM 57.2 °F 55.4 °F 94% 29.70 in 2.0 mi South 3.5 mph - 0.12 in Rain Rain
1:53 PM 57.0 °F 55.0 °F 93% 29.69 in 2.0 mi SSW 3.5 mph - 0.15 in Rain Light Rain
2:06 PM 57.2 °F 55.4 °F 94% 29.69 in 1.8 mi SSW 3.5 mph - 0.02 in Rain Light Rain
2:34 PM 57.2 °F 55.4 °F 94% 29.67 in 2.0 mi Calm Calm - 0.07 in Rain Rain
2:49 PM 57.2 °F 55.4 °F 94% 29.67 in 1.8 mi Calm Calm - 0.10 in Rain Rain
2:53 PM 57.0 °F 55.9 °F 96% 29.67 in 2.0 mi Calm Calm - 0.10 in Rain Light Rain
3:02 PM 57.2 °F 55.4 °F 94% 29.66 in 2.0 mi Calm Calm - 0.01 in Rain Light Rain
3:53 PM 55.9 °F 55.0 °F 97% 29.65 in 2.0 mi Calm Calm - 0.06 in Rain Light Rain
4:00 PM 55.4 °F 55.4 °F 100% 29.65 in 1.8 mi Calm Calm - 0.00 in Rain Light Rain
4:07 PM 55.4 °F 55.4 °F 100% 29.64 in 2.0 mi SSE 3.5 mph - 0.00 in Rain Light Rain
4:18 PM 55.4 °F 55.4 °F 100% 29.64 in 2.0 mi Calm Calm - 0.01 in   Overcast
4:26 PM 55.4 °F 53.6 °F 94% 29.64 in 1.0 mi SSE 4.6 mph - 0.01 in Rain Light Rain
4:53 PM 55.9 °F 54.0 °F 93% 29.62 in 1.0 mi Calm Calm - 0.04 in Rain Light Rain
5:00 PM 55.4 °F 53.6 °F 94% 29.62 in 3.0 mi Calm Calm - 0.00 in Rain Light Rain
5:17 PM 55.4 °F 55.4 °F 100% 29.61 in 3.0 mi Calm Calm - 0.00 in Rain Light Rain
5:34 PM 55.4 °F 53.6 °F 94% 29.61 in 2.5 mi SE 3.5 mph - 0.00 in Rain Light Rain
5:50 PM 55.4 °F 53.6 °F 94% 29.61 in 1.2 mi Calm Calm - 0.00 in   Overcast
5:53 PM 55.9 °F 55.0 °F 97% 29.60 in 1.0 mi ESE 3.5 mph - 0.00 in   Mist
6:23 PM 55.4 °F 55.4 °F 100% 29.59 in 0.8 mi Calm Calm - 0.01 in Rain Light Rain
6:43 PM 55.4 °F 53.6 °F 94% 29.57 in 1.2 mi East 4.6 mph - 0.03 in Rain Light Rain
6:53 PM 55.9 °F 54.0 °F 93% 29.57 in 2.0 mi Variable 3.5 mph - 0.03 in Rain Light Rain
7:02 PM 55.4 °F 55.4 °F 100% 29.56 in 5.0 mi ESE 3.5 mph - 0.00 in   Overcast
7:26 PM 55.4 °F 53.6 °F 94% 29.55 in 3.0 mi ESE 4.6 mph - 0.02 in Rain Light Rain
7:53 PM 55.9 °F 55.0 °F 97% 29.52 in 6.0 mi ESE 4.6 mph - 0.03 in Rain Light Rain
8:53 PM 57.0 °F 55.9 °F 96% 29.49 in 7.0 mi Calm Calm - 0.01 in   Overcast
9:53 PM 57.9 °F 55.9 °F 93% 29.44 in 7.0 mi SSE 5.8 mph - N/A   Overcast
10:13 PM 57.2 °F 57.2 °F 100% 29.41 in 5.0 mi SSE 6.9 mph - N/A   Overcast
10:50 PM 57.2 °F 57.2 °F 100% 29.39 in 5.0 mi South 12.7 mph 19.6 mph 0.01 in Rain Light Rain
10:53 PM 57.9 °F 57.0 °F 97% 29.38 in 6.0 mi South 10.4 mph 19.6 mph 0.01 in Rain Light Rain
11:32 PM 60.8 °F 57.2 °F 88% 29.34 in 2.0 mi South 8.1 mph 20.7 mph 0.12 in Rain Rain
11:40 PM 59.0 °F 57.2 °F 94% 29.33 in 2.5 mi South 8.1 mph - 0.15 in Rain Rain
11:48 PM 59.0 °F 57.2 °F 94% 29.32 in 4.0 mi SSW 8.1 mph - 0.15 in Rain Light Rain
11:53 PM 59.0 °F 57.9 °F 96% 29.31 in 4.0 mi South 9.2 mph - 0.15 in   Overcast